Kuujjuaq Airport, Quebec

Past 24 Hour Conditions

Date / Time
(EDT)
Conditions Temp
(°C)
Humidity
(%)
Dew Point
(°C)
Wind
(km/h)
Pressure
(kPa)
Vis
(km)
Wind Chill
25 October 2014
20:00 Mostly Cloudy 2 84 -1 E 19 100.6 24 *
19:00 Mostly Cloudy 2 83 -1 E 18 100.6 24 *
18:00 Mostly Cloudy 3 78 0 E 17 100.6 24 *
17:00 Mostly Cloudy 4 76 0 ESE 15 100.6 24 *
16:00 Mostly Cloudy 4 75 0 SE 15 100.6 24 *
15:00 Mostly Cloudy 4 76 0 ESE 14 100.6 24 *
14:00 Cloudy 5   73 0 SE 17 100.6 24 *
13:00 Mostly Cloudy 4 73 0 SE 21 100.6 24 *
12:00 Mostly Cloudy 4 75 0 SSE 14 100.7 24 *
11:00 Mostly Cloudy 3 77 0 SE 18 100.8 24 *
10:00 Mostly Cloudy 3 79 -1 SE 17 100.8 24 *
9:00 Mostly Cloudy 2 83 -1 SE 16 100.9 24 *
8:00 Mostly Cloudy 2 86 0 SE 17 101.0 24 *
7:00 Cloudy 1 90 -1 SE 14 101.0 24 *
6:00 Cloudy 0 92 -2 ESE 10 101.0 24 -4
5:00 Cloudy -1 90 -3 ESE 11 101.1 24 -5
4:00 Mostly Cloudy -3   89 -4 NE 9 101.2 24 -6
3:00 Mostly Cloudy -2 85 -4 NE 10 101.3 24 -5
2:00 Cloudy -2 83 -4 NE 12 101.4 24 -6
1:00 Mostly Cloudy -2 80 -5 NE 11 101.4 24 -6
00:00 Mostly Cloudy -2 78 -6 NE 11 101.5 24 -7
24 October 2014
23:00 Mostly Cloudy -2 73 -7 NE 14 101.6 24 -7
22:00 Mostly Cloudy -2 74 -6 ENE 15 101.7 24 -7
21:00 Mostly Cloudy -3   79 -6 ENE 15 101.8 24 -8
20:00 Mostly Cloudy -3   76 -6 ENE 20 101.9 24 -9
N/A Not available
↑ Highest temperature
↓ Lowest temperature
* Value not significant.

If you require additional historical weather information, please visit Climate Data Online.

Date modified: